GW6594 Weather Reports


time (UTC)temp
C
wind
direction
speed
KPH
gust
KPH
rain 1hr
cm
rain 24hr
cm
rain mn
cm
humidity
%
barometer
mb
20260507134600 11 311 12.9 19.3 0.00 1.96 0.51 75 1004.9
20260507133106 11 307 12.9 20.9 0.00 1.96 0.51 79 1005.5
20260507131603 10 302 9.7 25.7 0.00 1.96 0.51 80 1005.6
20260507130109 10 266 8.0 22.5 0.00 1.96 0.51 84 1005.2
20260507124605 8 296 9.7 24.1 0.00 1.96 0.51 86 1005.3
20260507123059 8 280 12.9 20.9 0.00 1.96 0.51 89 1004.9
20260507121607 7 296 14.5 20.9 0.00 1.96 0.51 90 1004.9
20260507120105 7 277 11.3 20.9 0.00 1.96 0.51 92 1005.2
20260507114614 7 280 4.8 12.9 0.00 1.96 0.51 93 1005.9
20260507113101 7 325 4.8 11.3 0.00 1.96 0.51 93 1005.6
20260507111604 6 273 4.8 12.9 0.00 1.96 0.51 93 1005.7
20260507110109 6 294 6.4 11.3 0.00 1.96 0.51 93 1005.7
20260507104601 6 297 6.4 17.7 0.00 1.96 0.51 93 1005.8
20260507103101 6 312 9.7 19.3 0.00 1.96 0.51 93 1004.7
20260507101605 6 285 9.7 19.3 0.00 1.96 0.51 93 1005.0
20260507100103 6 302 11.3 24.1 0.00 1.96 0.51 94 1004.4
20260507094558 6 275 12.9 24.1 0.00 1.96 0.51 94 1004.6
20260507093059 6 318 12.9 24.1 0.00 1.96 0.51 94 1004.3
20260507091600 6 301 11.3 19.3 0.00 1.96 0.51 94 1004.9
20260507090058 6 276 12.9 27.4 0.00 1.96 0.51 94 1004.7
20260507084559 7 305 14.5 25.7 0.00 1.96 0.51 94 1004.6
20260507083056 7 318 12.9 27.4 0.00 1.96 0.51 95 1004.2
20260507081604 7 321 14.5 22.5 0.00 1.96 0.51 95 1004.1
20260507080104 7 306 11.3 20.9 0.03 1.96 0.51 94 1004.2
20260507074609 7 302 12.9 25.7 0.03 1.96 0.51 94 1003.9
20260507073057 7 289 14.5 25.7 0.03 1.96 0.51 95 1003.8
20260507071600 7 275 12.9 25.7 0.05 1.96 0.51 94 1003.8
20260507070058 7 324 12.9 24.1 0.03 1.93 0.48 94 1003.4
20260507064609 8 292 17.7 29.0 0.18 1.93 0.48 95 1003.5
20260507063100 8 309 12.9 25.7 0.41 1.93 0.48 95 1003.8
20260507061608 8 296 12.9 27.4 0.43 1.91 0.46 94 1003.5
20260507060059 8 279 16.1 25.7 0.43 1.91 0.46 95 1002.9
20260507054639 8 227 22.5 40.2 0.28 1.75 0.30 95 1004.2
20260507053101 8 234 14.5 25.7 0.05 1.52 0.08 94 1003.4
20260507051604 8 233 17.7 25.7 0.03 1.47 0.03 95 1003.1
20260507050100 8 210 16.1 27.4 0.03 1.47 0.03 94 1003.4
20260507044605 8 197 19.3 33.8 0.03 1.47 0.03 94 1003.0
20260507043103 9 207 20.9 35.4 0.03 1.47 0.03 94 1003.2
20260507041605 9 215 17.7 32.2 0.00 1.45 0.00 94 1003.3
20260507040058 8 213 20.9 37.0 0.00 1.45 0.00 94 1003.6
20260507034602 9 206 24.1 41.8 0.00 1.45 1.45 94 1003.6
20260507033106 9 172 24.1 37.0 0.00 1.45 1.45 94 1003.6
20260507031609 9 207 17.7 35.4 0.05 1.45 1.45 94 1003.9
20260507024607 10 169 27.4 53.1 0.15 1.45 1.45 94 1004.4
20260507023143 10 175 24.1 74.0 0.23 1.45 1.45 94 1004.4
20260507021643 10 183 27.4 53.1 0.36 1.40 1.40 94 1004.7
20260507020144 10 174 25.7 43.5 0.41 1.32 1.32 94 1004.9
20260507014645 10 162 24.1 53.1 0.41 1.30 1.30 94 1005.1
20260507013145 10 171 30.6 48.3 0.46 1.22 1.22 94 1005.3
20260507011643 11 179 25.7 46.7 0.41 1.04 1.04 94 1005.7
20260507010144 10 165 29.0 51.5 0.41 0.94 0.94 94 1005.9
20260507004644 10 165 29.0 56.3 0.43 0.86 0.86 94 1006.2
20260507003144 10 194 29.0 49.9 0.43 0.76 0.76 94 1006.4
20260507001644 10 192 29.0 59.5 0.38 0.64 0.64 93 1006.5
20260507000145 10 167 32.2 54.7 0.30 0.53 0.53 93 1006.7
20260506234645 10 169 38.6 64.4 0.20 0.43 0.43 93 1006.8
20260506233121 10 213 25.7 48.3 0.13 0.33 0.33 93 1006.8
20260506231559 10 180 30.6 69.2 0.08 0.25 0.25 93 1007.1
20260506230059 10 179 27.4 48.3 0.08 0.23 0.23 93 1007.1
20260506224600 10 186 27.4 51.5 0.15 0.23 0.23 93 1007.2
20260506223104 10 192 30.6 46.7 0.15 0.20 0.20 93 1007.4
20260506221600 10 171 25.7 46.7 0.15 0.18 0.18 93 1007.2
20260506220100 10 182 33.8 53.1 0.13 0.15 0.15 93 1007.8
20260506214600 10 185 32.2 46.7 0.08 0.08 0.08 92 1008.0
20260506213120 10 187 25.7 46.7 0.05 0.05 0.05 92 1008.1
20260506211601 10 186 24.1 41.8 0.03 0.03 0.03 92 1008.0
20260506210100 10 180 25.7 48.3 0.03 0.03 0.03 91 1008.4
20260506204559 10 189 24.1 45.1 0.00 0.00 0.00 90 1008.5
20260506203100 11 200 29.0 49.9 0.00 0.00 0.00 89 1008.1
20260506201600 11 199 29.0 62.8 0.00 0.00 0.00 89 1008.2
20260506200059 11 200 29.0 53.1 0.00 0.00 0.00 89 1008.0
20260506194634 11 161 25.7 53.1 0.00 0.00 0.00 88 1008.1
20260506193106 11 196 25.7 41.8 0.00 0.00 0.00 87 1008.2
20260506191600 11 194 22.5 51.5 0.00 0.00 0.00 86 1008.6
20260506184601 11 188 27.4 51.5 0.00 0.00 0.00 87 1008.8
20260506183101 11 167 22.5 48.3 0.00 0.00 0.00 87 1008.9
20260506181559 12 184 20.9 38.6 0.00 0.00 0.00 86 1008.9
20260506180106 12 148 27.4 48.3 0.00 0.00 0.00 85 1009.0
20260506174601 12 187 19.3 38.6 0.00 0.00 0.00 85 1009.2
20260506173059 12 191 25.7 53.1 0.00 0.00 0.00 84 1009.3
20260506171604 13 151 29.0 56.3 0.00 0.00 0.00 83 1009.4
20260506170111 13 210 29.0 54.7 0.00 0.00 0.00 83 1009.5
20260506164615 13 205 27.4 49.9 0.00 0.00 0.00 82 1009.5
20260506163119 13 200 29.0 49.9 0.00 0.00 0.00 83 1009.9
20260506161614 13 190 30.6 48.3 0.00 0.00 0.00 84 1010.2
20260506160059 13 205 27.4 57.9 0.00 0.00 0.00 83 1010.0
20260506154624 13 207 29.0 53.1 0.00 0.00 0.00 85 1010.0
20260506153110 13 195 30.6 48.3 0.00 0.00 0.00 86 1009.9
20260506151600 12 180 19.3 40.2 0.00 0.00 0.00 88 1009.8
20260506144601 11 206 24.1 41.8 0.00 0.00 0.00 89 1010.5
20260506143107 11 194 24.1 41.8 0.00 0.00 0.00 89 1010.6
20260506141559 11 200 22.5 40.2 0.00 0.00 0.00 89 1010.5
20260506140101 11 214 20.9 38.6 0.00 0.00 0.00 89 1010.4